Raton, NM

7:25 PM MDT on May 25, 2018 (GMT -0600)
Raton Municipal-Crews

Weather History for KRTN - July, 2012

Change the Weather History Date:

Monday, July 2, 2012

  Actual Average (KTAD) Record (KTAD)
Temperature  
Mean Temperature 78 °F -  
Max Temperature 96 °F 88 °F 99 °F (1960)
Min Temperature 60 °F 57 °F 46 °F (1997)
Cooling Degree Days 12    
Growing Degree Days 28 (Base 50)    
Moisture  
Dew Point 47 °F    
Average Humidity 37    
Maximum Humidity 67    
Minimum Humidity 18    
Precipitation  
Precipitation 0.00 in - - ()
Sea Level Pressure  
Sea Level Pressure 29.78 in    
Wind  
Wind Speed 8 mph (SSW)    
Max Wind Speed 20 mph    
Max Gust Speed 26 mph    
Visibility 10 miles    
Events      
Averages and records for this station are not official NWS values.
T = Trace of Precipitation, MM = Missing Value Source: NWS Daily Summary

Daily Weather History Graph

Daily Weather History Graph

Search for Another Location

Airport or City:

Astronomy

Jul. 02, 2012 Rise Set
Actual Time 5:43 AM MDT 8:20 PM MDT
Civil Twilight 5:13 AM MDT 8:51 PM MDT
Nautical Twilight 4:35 AM MDT 9:29 PM MDT
Astronomical Twilight 3:52 AM MDT 10:11 PM MDT
Moon 7:26 PM MDT (7/2) 4:32 AM MDT (7/2)
Length of Visible Light 15h 38m
Length of Day
14h 37m
Waxing Gibbous, 98% of the Moon is Illuminated
Jul 2
Waxing Gibbous
Jul 3
Full
Jul 10
Last Quarter
Jul 18
New
Jul 26
First Quarter

Hourly Weather History & Observations

Time (MDT) Temp. Dew Point Humidity Pressure Visibility Wind Dir Wind Speed Gust Speed Precip Events Conditions
12:53 AM 72.0 °F 51.1 °F 48% 29.83 in 10.0 mi Variable 6.9 mph - N/A   Clear
1:53 AM 68.0 °F 52.0 °F 56% 29.83 in 10.0 mi WSW 5.8 mph - N/A   Clear
2:53 AM 64.9 °F 51.1 °F 61% 29.84 in 10.0 mi WSW 5.8 mph - N/A   Clear
3:53 AM 63.0 °F 50.0 °F 63% 29.83 in 10.0 mi North 4.6 mph - N/A   Clear
4:53 AM 60.1 °F 48.9 °F 67% 29.82 in 10.0 mi North 5.8 mph - N/A   Clear
5:53 AM 60.1 °F 48.9 °F 67% 29.82 in 10.0 mi North 8.1 mph - N/A   Clear
6:53 AM 66.0 °F 50.0 °F 56% 29.81 in 10.0 mi Calm Calm - N/A   Clear
7:53 AM 72.0 °F 48.0 °F 43% 29.81 in 10.0 mi Calm Calm - N/A   Clear
8:53 AM 77.0 °F 48.9 °F 37% 29.82 in 10.0 mi Calm Calm - N/A   Clear
9:53 AM 81.0 °F 48.0 °F 31% 29.80 in 10.0 mi Calm Calm - N/A   Clear
10:53 AM 86.0 °F 48.0 °F 27% 29.79 in 10.0 mi South 6.9 mph - N/A   Clear
11:53 AM 91.0 °F 45.0 °F 20% 29.77 in 10.0 mi SSW 10.4 mph 16.1 mph N/A   Clear
12:53 PM 93.9 °F 44.1 °F 18% 29.73 in 10.0 mi SSE 10.4 mph 24.2 mph N/A   Clear
1:53 PM 93.9 °F 45.0 °F 18% 29.74 in 10.0 mi SSW 15.0 mph 25.3 mph N/A   Clear
2:53 PM 95.0 °F 45.0 °F 18% 29.74 in 10.0 mi South 19.6 mph 26.5 mph N/A   Clear
3:53 PM 93.9 °F 44.1 °F 18% 29.74 in 10.0 mi SW 15.0 mph 25.3 mph N/A   Clear
4:53 PM 95.0 °F 45.0 °F 18% 29.73 in 10.0 mi South 12.7 mph 20.7 mph N/A   Partly Cloudy
5:53 PM 88.0 °F 45.0 °F 22% 29.75 in 10.0 mi South 18.4 mph 26.5 mph N/A   Mostly Cloudy
6:53 PM 86.0 °F 46.0 °F 25% 29.75 in 10.0 mi South 16.1 mph - N/A   Clear
7:53 PM 84.0 °F 46.0 °F 26% 29.75 in 10.0 mi South 19.6 mph - N/A   Mostly Cloudy
8:53 PM 80.1 °F 46.0 °F 30% 29.76 in 10.0 mi SSW 12.7 mph - N/A   Partly Cloudy
9:53 PM 78.1 °F 46.9 °F 33% 29.77 in 10.0 mi South 15.0 mph - N/A   Clear
10:53 PM 73.9 °F 46.9 °F 38% 29.78 in 10.0 mi SSW 8.1 mph - N/A   Clear
11:53 PM 69.1 °F 45.0 °F 42% 29.79 in 10.0 mi South 8.1 mph - N/A   Clear